DLH837 EKBI-EDDF

Flight info

Callsign DLH837
Flight time N/A
Altitude 39000
Route ALS M852 EKERN DCT RIMET/N0373F310 T157 KOKEB/N0318F230 T157 KERAX KERAX5D
Aircraft E190/M-SDE2E3FGIRWY/LB1

Departure

Time 2026-04-30 18:05
Airport Billund Airport (EKBI)

Arrival

Time N/A
Airport Frankfurt Main Airport (EDDF)
Time Latitude Longitude Altitude Speed Heading
2026-04-30 17:44 55.74529 9.14752 215 ft 0 kts 356°
2026-04-30 17:55 55.74523 9.14753 220 ft 4 kts 358°
2026-04-30 17:56 55.74446 9.14701 220 ft 1 kts 86°
2026-04-30 17:57 55.74446 9.14698 220 ft 0 kts 86°
2026-04-30 17:59 55.74398 9.14980 215 ft 14 kts 171°
2026-04-30 18:00 55.74212 9.15522 217 ft 21 kts 87°
2026-04-30 18:00 55.74239 9.16417 215 ft 27 kts 86°
2026-04-30 18:01 55.74260 9.17080 215 ft 26 kts 87°
2026-04-30 18:02 55.74287 9.17996 215 ft 18 kts 92°
2026-04-30 18:02 55.74221 9.18144 219 ft 5 kts 165°
2026-04-30 18:03 55.74124 9.18084 215 ft 0 kts 266°
2026-04-30 18:04 55.74065 9.16102 222 ft 141 kts 266°
2026-04-30 18:05 55.73922 9.07080 2726 ft 208 kts 289°
2026-04-30 18:06 55.78851 8.99550 5667 ft 264 kts 327°
2026-04-30 18:07 55.80592 8.88006 8844 ft 286 kts 236°
2026-04-30 18:08 55.75549 8.83893 10945 ft 297 kts 162°
2026-04-30 18:09 55.67800 8.91950 12792 ft 345 kts 150°
2026-04-30 18:10 55.59306 9.00308 15493 ft 358 kts 148°
2026-04-30 18:11 55.50408 9.09106 17794 ft 376 kts 152°
2026-04-30 18:11 55.42588 9.11995 19471 ft 390 kts 169°
2026-04-30 18:12 55.34487 9.14390 21093 ft 401 kts 169°
2026-04-30 18:13 55.28934 9.16057 22065 ft 408 kts 169°
2026-04-30 18:13 55.20424 9.18594 23377 ft 418 kts 169°
2026-04-30 18:14 55.14640 9.20312 24226 ft 424 kts 169°
2026-04-30 18:15 55.05885 9.22914 25433 ft 431 kts 169°
2026-04-30 18:15 54.96927 9.25554 26540 ft 439 kts 169°
2026-04-30 18:16 54.90879 9.27324 27178 ft 443 kts 170°
2026-04-30 18:16 54.84756 9.29105 27712 ft 449 kts 169°
2026-04-30 18:17 54.81670 9.30001 28002 ft 451 kts 169°
2026-04-30 18:17 54.78607 9.30887 28291 ft 453 kts 170°
2026-04-30 18:17 54.72355 9.32694 28868 ft 457 kts 170°
2026-04-30 18:18 54.69219 9.33599 29151 ft 459 kts 170°
2026-04-30 18:18 54.66057 9.34507 29432 ft 461 kts 170°
2026-04-30 18:18 54.62903 9.35413 29851 ft 459 kts 170°
2026-04-30 18:18 54.59757 9.36320 30301 ft 458 kts 170°
2026-04-30 18:19 54.56619 9.37224 30660 ft 457 kts 170°
2026-04-30 18:19 54.53483 9.38122 30956 ft 456 kts 170°
2026-04-30 18:19 54.50347 9.39018 31273 ft 455 kts 170°
2026-04-30 18:19 54.47268 9.39896 31566 ft 455 kts 170°
2026-04-30 18:20 54.44147 9.40784 31857 ft 454 kts 170°
2026-04-30 18:20 54.41033 9.41669 32153 ft 453 kts 170°
2026-04-30 18:20 54.37922 9.42548 32438 ft 453 kts 170°
2026-04-30 18:20 54.34827 9.43425 32743 ft 451 kts 170°
2026-04-30 18:21 54.31728 9.44301 33044 ft 451 kts 170°
2026-04-30 18:21 54.28635 9.45173 33342 ft 450 kts 170°
2026-04-30 18:21 54.25548 9.46042 33644 ft 449 kts 170°
2026-04-30 18:21 54.22507 9.46896 33948 ft 449 kts 170°
2026-04-30 18:22 54.19392 9.47770 34250 ft 448 kts 170°
2026-04-30 18:22 54.13291 9.49476 34781 ft 446 kts 170°
2026-04-30 18:22 54.10226 9.50330 35030 ft 446 kts 170°
2026-04-30 18:23 54.07169 9.51182 35281 ft 445 kts 170°
2026-04-30 18:23 54.04118 9.52030 35532 ft 444 kts 170°
2026-04-30 18:23 54.01066 9.52876 35724 ft 445 kts 170°
2026-04-30 18:23 53.98008 9.53720 35923 ft 445 kts 170°
2026-04-30 18:24 53.91912 9.55401 36352 ft 443 kts 170°
2026-04-30 18:24 53.88867 9.56239 36552 ft 443 kts 170°
2026-04-30 18:24 53.85869 9.57062 36735 ft 442 kts 170°
2026-04-30 18:25 53.82831 9.57893 36863 ft 443 kts 169°
2026-04-30 18:25 53.76756 9.59559 37176 ft 442 kts 169°
2026-04-30 18:25 53.73725 9.60390 37352 ft 440 kts 169°
2026-04-30 18:26 53.67694 9.62017 37495 ft 440 kts 170°
2026-04-30 18:26 53.64673 9.62831 37496 ft 440 kts 170°
2026-04-30 18:27 53.55649 9.65252 37427 ft 441 kts 169°
2026-04-30 18:28 53.46555 9.67688 37427 ft 441 kts 169°
2026-04-30 18:28 53.37463 9.70117 37422 ft 441 kts 169°
2026-04-30 18:29 53.25385 9.73320 37426 ft 441 kts 169°
2026-04-30 18:30 53.13268 9.76514 37427 ft 441 kts 169°
2026-04-30 18:31 53.04200 9.78895 37426 ft 441 kts 169°
2026-04-30 18:32 52.95108 9.81271 37428 ft 441 kts 169°
2026-04-30 18:33 52.86069 9.83706 37434 ft 441 kts 170°
2026-04-30 18:33 52.76980 9.85990 37429 ft 440 kts 169°
2026-04-30 18:34 52.67942 9.88310 37429 ft 440 kts 169°
2026-04-30 18:35 52.61887 9.89866 37429 ft 440 kts 169°
2026-04-30 18:35 52.55840 9.91416 37428 ft 440 kts 169°
2026-04-30 18:36 52.46754 9.93739 37428 ft 440 kts 169°
2026-04-30 18:37 52.37673 9.96050 37424 ft 441 kts 169°
2026-04-30 18:37 52.31618 9.97586 37302 ft 445 kts 169°
2026-04-30 18:37 52.28515 9.98370 37068 ft 445 kts 169°
2026-04-30 18:38 52.25503 9.99128 36805 ft 445 kts 169°
2026-04-30 18:38 52.22447 9.99896 36557 ft 444 kts 169°
2026-04-30 18:38 52.19393 10.00665 36290 ft 444 kts 169°
2026-04-30 18:38 52.16337 10.01432 35968 ft 445 kts 169°
2026-04-30 18:39 52.13278 10.02197 35654 ft 444 kts 169°
2026-04-30 18:39 52.10231 10.02959 35312 ft 442 kts 169°
2026-04-30 18:39 52.07204 10.03715 35007 ft 438 kts 169°
2026-04-30 18:39 52.04203 10.04464 34684 ft 435 kts 169°
2026-04-30 18:40 52.01259 10.05198 34369 ft 432 kts 169°
2026-04-30 18:40 51.98296 10.05937 34013 ft 430 kts 169°
2026-04-30 18:40 51.95346 10.06671 33652 ft 428 kts 169°
2026-04-30 18:40 51.92413 10.07401 33311 ft 425 kts 169°
2026-04-30 18:41 51.89497 10.08127 32940 ft 423 kts 169°
2026-04-30 18:41 51.86592 10.08849 32558 ft 421 kts 168°
2026-04-30 18:41 51.83699 10.09566 32160 ft 419 kts 168°
2026-04-30 18:41 51.80795 10.10286 31800 ft 430 kts 168°
2026-04-30 18:42 51.77796 10.11032 31442 ft 441 kts 168°
2026-04-30 18:42 51.71706 10.12536 30815 ft 449 kts 168°
2026-04-30 18:42 51.68615 10.13298 30480 ft 450 kts 168°
2026-04-30 18:45 51.37865 10.20831 26907 ft 428 kts 167°
2026-04-30 18:45 51.34959 10.21538 26562 ft 417 kts 167°
2026-04-30 18:45 51.32090 10.21990 26251 ft 412 kts 173°
2026-04-30 18:46 51.29229 10.22096 25918 ft 414 kts 181°
2026-04-30 18:46 51.26416 10.21047 25602 ft 420 kts 201°
2026-04-30 18:46 51.23919 10.18620 25507 ft 418 kts 214°
2026-04-30 18:46 51.21553 10.15841 25530 ft 428 kts 215°
2026-04-30 18:47 51.19144 10.13036 25529 ft 430 kts 214°
2026-04-30 18:47 51.16750 10.10267 25287 ft 431 kts 214°
2026-04-30 18:47 51.14329 10.07462 25082 ft 429 kts 214°
2026-04-30 18:47 51.11917 10.04683 24850 ft 428 kts 214°
2026-04-30 18:48 51.09506 10.01924 24646 ft 426 kts 214°
2026-04-30 18:48 51.07097 9.99177 24422 ft 425 kts 213°
2026-04-30 18:48 51.04699 9.96464 24428 ft 422 kts 213°
2026-04-30 18:48 51.02306 9.93787 24435 ft 420 kts 213°
2026-04-30 18:49 50.99917 9.91118 24436 ft 421 kts 213°
2026-04-30 18:49 50.97555 9.88481 24448 ft 421 kts 213°
2026-04-30 18:49 50.95158 9.85806 24451 ft 421 kts 213°
2026-04-30 18:49 50.92761 9.83132 24448 ft 421 kts 213°
2026-04-30 18:50 50.90363 9.80461 24449 ft 421 kts 213°
2026-04-30 18:50 50.87963 9.77790 24414 ft 421 kts 213°
2026-04-30 18:50 50.85568 9.75124 24403 ft 421 kts 213°
2026-04-30 18:50 50.83172 9.72465 24401 ft 421 kts 212°
2026-04-30 18:51 50.80774 9.69808 24409 ft 421 kts 212°
2026-04-30 18:51 50.78374 9.67152 24410 ft 421 kts 212°
2026-04-30 18:51 50.75970 9.64494 24236 ft 424 kts 212°
2026-04-30 18:51 50.73608 9.61859 23815 ft 422 kts 213°
2026-04-30 18:52 50.71226 9.59195 23399 ft 417 kts 213°
2026-04-30 18:52 50.68865 9.56566 22950 ft 414 kts 213°
2026-04-30 18:52 50.66522 9.53966 22514 ft 410 kts 212°
2026-04-30 18:52 50.64190 9.51388 22109 ft 408 kts 212°
2026-04-30 18:53 50.61874 9.48834 21676 ft 406 kts 212°
2026-04-30 18:53 50.59583 9.46313 21289 ft 403 kts 212°
2026-04-30 18:53 50.57289 9.43795 20865 ft 401 kts 212°
2026-04-30 18:53 50.55006 9.41296 20478 ft 398 kts 212°
2026-04-30 18:54 50.52766 9.38850 20093 ft 397 kts 212°
2026-04-30 18:54 50.50506 9.36388 19710 ft 394 kts 212°
2026-04-30 18:54 50.48259 9.33948 19341 ft 391 kts 212°
2026-04-30 18:54 50.46029 9.31533 18947 ft 389 kts 212°
2026-04-30 18:55 50.43812 9.29133 18578 ft 386 kts 212°
2026-04-30 18:55 50.39430 9.24404 17689 ft 379 kts 212°
2026-04-30 18:55 50.37261 9.22073 17219 ft 377 kts 212°
2026-04-30 18:56 50.32968 9.17473 16174 ft 370 kts 212°
2026-04-30 18:56 50.30853 9.15216 15630 ft 366 kts 212°
2026-04-30 18:56 50.28796 9.12996 15158 ft 362 kts 214°
2026-04-30 18:57 50.25974 9.06667 14137 ft 360 kts 250°
2026-04-30 18:57 50.25178 9.02973 13607 ft 357 kts 251°
2026-04-30 18:57 50.24384 8.99303 13046 ft 355 kts 250°
2026-04-30 18:58 50.22688 8.92147 11979 ft 346 kts 248°
2026-04-30 18:58 50.21851 8.88658 11450 ft 342 kts 248°
2026-04-30 18:58 50.21029 8.85202 10936 ft 337 kts 248°
2026-04-30 18:59 50.19441 8.78501 9896 ft 321 kts 248°
2026-04-30 19:00 50.17036 8.69280 8470 ft 283 kts 246°
2026-04-30 19:00 50.16335 8.66557 8841 ft 265 kts 245°